Flag for Equatorial Guinea Weather past 2 weeks in Malabo, Equatorial Guinea

Now
88 °F

Passing clouds.


Feels Like: 98 °F
Forecast: 75 / 89 °F
Wind: 7 mph from West

Location: Malabo/Fernando Poo


UV Index: 7 (High)

Visibility: N/A


Pressure: 29.74 "Hg

Humidity: 66%

Dew point: 75 °F

Location of MalaboLocation

Historic Weather in Malabo

°F

Malabo temperature yesterday

Maximum temperature yesterday: 88 °F (at 11:00 AM)
Minimum temperature yesterday: 72 °F (at 5:00 AM)
Average temperature yesterday: 79 °F

Past Weeks' High & Low Weather Summary

 TemperatureHumidityPressure
High90 °F (Apr 4, 12:00 PM)94% (Apr 3, 12:00 AM)29.95 "Hg (Apr 3, 12:00 AM)
Low72 °F (Apr 16, 5:00 AM)59% (Apr 3, 1:00 PM)29.74 "Hg (Apr 12, 4:00 PM)
Average80 °F81%29.85 "Hg
* Reported Apr 2 8:00 PM — Apr 17 4:00 PM, Malabo, Weather by CustomWeather, © 2014

Note: Actual official high and low records may vary slightly from our data, if they occured in-between our weather recording intervals... More about our weather records

Advertising

Historic Weather Conditions — Data for Previous 24 hours

 ConditionsComfort  
Time TempWeatherWind HumidityBarometerVisibility
4:00 PM
Apr 17
90 °FPassing clouds.6 mph63%29.74 "HgN/A
3:00 PM88 °FPassing clouds.6 mph62%29.77 "HgN/A
2:00 PM88 °FPassing clouds.7 mph66%29.80 "HgN/A
1:00 PM88 °FPassing clouds.3 mph66%29.83 "HgN/A
12:00 PM88 °FScattered clouds.6 mph66%29.86 "HgN/A
11:00 AM88 °FScattered clouds.5 mph70%29.86 "HgN/A
10:00 AM88 °FPassing clouds.6 mph66%29.86 "HgN/A
9:00 AM82 °FPassing clouds.6 mph84%29.86 "HgN/A
8:00 AM79 °FBroken clouds.9 mph89%29.86 "HgN/A
7:00 AM75 °FPartly sunny.1 mph94%29.83 "HgN/A
6:00 AM75 °FThunderstorms. Passing clouds.5 mph89%29.80 "HgN/A
5:00 AM75 °FThunderstorms. Passing clouds.3 mph89%29.77 "Hg4 mi
4:00 AMN/APassing clouds.N/AN/AN/AN/A
3:00 AM73 °FPassing clouds.3 mph94%29.83 "HgN/A
2:00 AM75 °FPassing clouds.3 mph89%29.83 "HgN/A
1:00 AM75 °FPassing clouds.1 mph89%29.86 "HgN/A
12:00 AM77 °FPassing clouds.5 mph89%29.86 "HgN/A
11:00 PM
Apr 16
75 °FPassing clouds.5 mph89%29.86 "HgN/A
10:00 PM75 °FPassing clouds.5 mph89%29.86 "HgN/A
9:30 PM75 °FPassing clouds.5 mph94%29.83 "HgN/A
9:00 PM77 °FPassing clouds.6 mph83%29.83 "HgN/A
8:30 PM77 °FPassing clouds.5 mph89%29.80 "HgN/A
8:00 PM79 °FPassing clouds.5 mph84%29.80 "HgN/A
7:00 PM81 °FPassing clouds.6 mph79%29.80 "HgN/A
6:00 PM82 °FPassing clouds.6 mph74%29.77 "HgN/A
5:00 PM86 °FPassing clouds.8 mph70%29.77 "HgN/A
Weather by CustomWeather, © 2014

See weather overview